| time (UTC) | temp C | wind direction | speed KPH | gust KPH | rain 1hr cm | rain 24hr cm | rain mn cm | humidity % | barometer mb |
| 20260504214719 | 22 | 7 | 4.8 | 4.8 | 0.00 | 0.00 | 0.00 | 40 | 1012.6 |
| 20260504214216 | 22 | 142 | 1.6 | 3.2 | 0.00 | 0.00 | 0.00 | 39 | 1012.5 |
| 20260504213712 | 22 | 290 | 3.2 | 3.2 | 0.00 | 0.00 | 0.00 | 40 | 1012.6 |
| 20260504213208 | 22 | 39 | 4.8 | 4.8 | 0.00 | 0.00 | 0.00 | 40 | 1012.7 |
| 20260504212700 | 22 | 68 | 6.4 | 9.7 | 0.00 | 0.00 | 0.00 | 39 | 1012.8 |
| 20260504212156 | 22 | 34 | 1.6 | 1.6 | 0.00 | 0.00 | 0.00 | 39 | 1012.7 |
| 20260504211654 | 22 | 40 | 4.8 | 8.0 | 0.00 | 0.00 | 0.00 | 38 | 1012.7 |
| 20260504211150 | 23 | 48 | 1.6 | 3.2 | 0.00 | 0.00 | 0.00 | 39 | 1012.7 |
| 20260504210648 | 23 | 64 | 0.0 | 1.6 | 0.00 | 0.00 | 0.00 | 39 | 1012.6 |
| 20260504210144 | 22 | 97 | 4.8 | 9.7 | 0.00 | 0.00 | 0.00 | 38 | 1012.6 |
| 20260504205642 | 23 | 58 | 3.2 | 4.8 | 0.00 | 0.00 | 0.00 | 38 | 1012.7 |
| 20260504205139 | 23 | 51 | 1.6 | 3.2 | 0.00 | 0.00 | 0.00 | 39 | 1012.8 |
| 20260504204637 | 22 | 67 | 6.4 | 9.7 | 0.00 | 0.00 | 0.00 | 39 | 1012.9 |
| 20260504204136 | 23 | 73 | 3.2 | 3.2 | 0.00 | 0.00 | 0.00 | 38 | 1012.7 |
| 20260504203634 | 23 | 83 | 4.8 | 8.0 | 0.00 | 0.00 | 0.00 | 39 | 1012.8 |
| 20260504203132 | 23 | 52 | 1.6 | 3.2 | 0.00 | 0.00 | 0.00 | 38 | 1012.8 |
| 20260504202631 | 23 | 56 | 6.4 | 9.7 | 0.00 | 0.00 | 0.00 | 37 | 1012.9 |
| 20260504202129 | 24 | 40 | 1.6 | 4.8 | 0.00 | 0.00 | 0.00 | 36 | 1013.0 |
| 20260504201625 | 23 | 64 | 3.2 | 3.2 | 0.00 | 0.00 | 0.00 | 36 | 1012.9 |
| 20260504201123 | 23 | 329 | 1.6 | 1.6 | 0.00 | 0.00 | 0.00 | 36 | 1013.0 |
| 20260504200620 | 23 | 54 | 3.2 | 3.2 | 0.00 | 0.00 | 0.00 | 36 | 1013.2 |
| 20260504200116 | 23 | 114 | 0.0 | 1.6 | 0.00 | 0.00 | 0.00 | 37 | 1013.1 |
| 20260504195612 | 23 | 61 | 3.2 | 3.2 | 0.00 | 0.00 | 0.00 | 36 | 1013.2 |
| 20260504195109 | 23 | 90 | 4.8 | 8.0 | 0.00 | 0.00 | 0.00 | 36 | 1013.4 |
| 20260504194606 | 24 | 50 | 3.2 | 3.2 | 0.00 | 0.00 | 0.00 | 36 | 1013.4 |
| 20260504194101 | 24 | 191 | 0.0 | 1.6 | 0.00 | 0.00 | 0.00 | 37 | 1013.4 |
| 20260504193558 | 24 | 76 | 1.6 | 1.6 | 0.00 | 0.00 | 0.00 | 36 | 1013.6 |
| 20260504193057 | 23 | 58 | 1.6 | 1.6 | 0.00 | 0.00 | 0.00 | 38 | 1013.7 |
| 20260504192555 | 23 | 354 | 1.6 | 3.2 | 0.00 | 0.00 | 0.00 | 36 | 1013.7 |
| 20260504192052 | 23 | 83 | 0.0 | 1.6 | 0.00 | 0.00 | 0.00 | 40 | 1013.7 |
| 20260504191550 | 23 | 58 | 1.6 | 3.2 | 0.00 | 0.00 | 0.00 | 37 | 1014.0 |
| 20260504191046 | 22 | 47 | 4.8 | 8.0 | 0.00 | 0.00 | 0.00 | 37 | 1013.9 |
| 20260504190542 | 23 | 59 | 6.4 | 8.0 | 0.00 | 0.00 | 0.00 | 36 | 1014.2 |
| 20260504190038 | 23 | 300 | 3.2 | 4.8 | 0.00 | 0.00 | 0.00 | 37 | 1014.1 |
| 20260504185536 | 23 | 73 | 3.2 | 3.2 | 0.00 | 0.00 | 0.00 | 36 | 1014.2 |
| 20260504185032 | 23 | 51 | 1.6 | 1.6 | 0.00 | 0.00 | 0.00 | 36 | 1014.0 |
| 20260504184528 | 23 | 283 | 1.6 | 3.2 | 0.00 | 0.00 | 0.00 | 36 | 1014.3 |
| 20260504184023 | 23 | 234 | 4.8 | 8.0 | 0.00 | 0.00 | 0.00 | 36 | 1014.4 |
| 20260504183521 | 23 | 57 | 1.6 | 1.6 | 0.00 | 0.00 | 0.00 | 37 | 1014.7 |
| 20260504183019 | 22 | 62 | 3.2 | 3.2 | 0.00 | 0.00 | 0.00 | 36 | 1014.5 |
| 20260504182515 | 22 | 44 | 3.2 | 3.2 | 0.00 | 0.00 | 0.00 | 36 | 1014.5 |
| 20260504182013 | 23 | 82 | 1.6 | 1.6 | 0.00 | 0.00 | 0.00 | 35 | 1014.4 |
| 20260504181509 | 22 | 89 | 0.0 | 1.6 | 0.00 | 0.00 | 0.00 | 34 | 1014.7 |
| 20260504181008 | 23 | 176 | 1.6 | 1.6 | 0.00 | 0.00 | 0.00 | 36 | 1015.1 |
| 20260504180507 | 23 | 60 | 1.6 | 1.6 | 0.00 | 0.00 | 0.00 | 32 | 1014.7 |
| 20260504180005 | 23 | 40 | 1.6 | 1.6 | 0.00 | 0.00 | 0.00 | 31 | 1014.9 |
| 20260504175502 | 23 | 281 | 1.6 | 3.2 | 0.00 | 0.00 | 0.00 | 33 | 1014.9 |
| 20260504174959 | 23 | 52 | 3.2 | 3.2 | 0.00 | 0.00 | 0.00 | 33 | 1015.0 |
| 20260504174456 | 23 | 304 | 1.6 | 1.6 | 0.00 | 0.00 | 0.00 | 31 | 1014.9 |
| 20260504173953 | 23 | 293 | 4.8 | 8.0 | 0.00 | 0.00 | 0.00 | 31 | 1015.2 |
| 20260504173450 | 23 | 269 | 4.8 | 9.7 | 0.00 | 0.00 | 0.00 | 32 | 1015.5 |
| 20260504172947 | 23 | 185 | 4.8 | 8.0 | 0.00 | 0.00 | 0.00 | 32 | 1015.4 |
| 20260504172443 | 23 | 206 | 1.6 | 3.2 | 0.00 | 0.00 | 0.00 | 31 | 1015.4 |
| 20260504171940 | 23 | 151 | 0.0 | 0.0 | 0.00 | 0.00 | 0.00 | 32 | 1015.3 |
| 20260504171437 | 22 | 56 | 0.0 | 1.6 | 0.00 | 0.00 | 0.00 | 33 | 1015.3 |
| 20260504170934 | 22 | 245 | 1.6 | 1.6 | 0.00 | 0.00 | 0.00 | 32 | 1015.5 |
| 20260504170430 | 22 | 83 | 1.6 | 1.6 | 0.00 | 0.00 | 0.00 | 33 | 1015.4 |
| 20260504160349 | 21 | 82 | 1.6 | 1.6 | 0.00 | 0.00 | 0.00 | 37 | 1016.2 |
| 20260504150814 | 19 | 55 | 1.6 | 1.6 | 0.00 | 0.00 | 0.00 | 36 | 1016.9 |
| 20260504150310 | 19 | 76 | 3.2 | 3.2 | 0.00 | 0.00 | 0.00 | 41 | 1016.9 |
| 20260504141241 | 16 | 62 | 0.0 | 1.6 | 0.00 | 0.00 | 0.00 | 48 | 1017.1 |
| 20260504140737 | 16 | 261 | 1.6 | 1.6 | 0.00 | 0.00 | 0.00 | 45 | 1017.0 |
| 20260504140233 | 16 | 272 | 1.6 | 3.2 | 0.00 | 0.00 | 0.00 | 47 | 1017.3 |
| 20260504130702 | 15 | 214 | 1.6 | 1.6 | 0.00 | 0.00 | 0.00 | 51 | 1017.5 |
| 20260504130157 | 15 | 210 | 1.6 | 1.6 | 0.00 | 0.00 | 0.00 | 53 | 1017.6 |
| 20260504120122 | 12 | 94 | 0.0 | 0.0 | 0.00 | 0.00 | 0.00 | 59 | 1017.7 |
| 20260504110549 | 10 | 57 | 1.6 | 1.6 | 0.00 | 0.00 | 0.00 | 66 | 1018.1 |
| 20260504100511 | 10 | 109 | 0.0 | 0.0 | 0.00 | 0.00 | 0.00 | 66 | 1017.9 |
| 20260504081904 | 10 | 97 | 0.0 | 0.0 | 0.00 | 0.00 | 0.00 | 63 | 1018.5 |
| 20260504081401 | 10 | 95 | 0.0 | 0.0 | 0.00 | 0.00 | 0.00 | 63 | 1018.4 |
| 20260504080856 | 10 | 76 | 0.0 | 0.0 | 0.00 | 0.00 | 0.00 | 63 | 1018.4 |
| 20260504080354 | 10 | 76 | 0.0 | 0.0 | 0.00 | 0.00 | 0.00 | 62 | 1018.5 |
| 20260504070321 | 10 | 85 | 0.0 | 0.0 | 0.00 | 0.00 | 0.00 | 60 | 1018.5 |
| 20260504060241 | 9 | 79 | 0.0 | 0.0 | 0.00 | 0.00 | 0.00 | 61 | 1018.6 |
| 20260504050704 | 8 | 79 | 0.0 | 0.0 | 0.00 | 0.00 | 0.00 | 61 | 1018.5 |
| 20260504050200 | 8 | 79 | 0.0 | 0.0 | 0.00 | 0.00 | 0.00 | 61 | 1018.6 |
| 20260504045657 | 8 | 79 | 0.0 | 0.0 | 0.00 | 0.00 | 0.00 | 61 | 1018.6 |
| 20260504045152 | 8 | 79 | 0.0 | 0.0 | 0.00 | 0.00 | 0.00 | 61 | 1018.5 |
| 20260504044650 | 8 | 80 | 0.0 | 0.0 | 0.00 | 0.00 | 0.00 | 61 | 1018.5 |
| 20260504044147 | 9 | 80 | 0.0 | 0.0 | 0.00 | 0.00 | 0.00 | 61 | 1018.7 |
| 20260504043644 | 8 | 79 | 0.0 | 0.0 | 0.00 | 0.00 | 0.00 | 60 | 1018.5 |
| 20260504043141 | 8 | 79 | 0.0 | 0.0 | 0.00 | 0.00 | 0.00 | 61 | 1018.6 |
| 20260504042638 | 8 | 79 | 0.0 | 0.0 | 0.00 | 0.00 | 0.00 | 61 | 1018.7 |
| 20260504042135 | 8 | 79 | 0.0 | 0.0 | 0.00 | 0.00 | 0.00 | 62 | 1018.4 |
| 20260504041630 | 8 | 81 | 0.0 | 0.0 | 0.00 | 0.00 | 0.00 | 62 | 1018.5 |
| 20260504041127 | 8 | 81 | 0.0 | 0.0 | 0.00 | 0.00 | 0.00 | 63 | 1018.4 |
| 20260504040624 | 8 | 83 | 0.0 | 0.0 | 0.00 | 0.00 | 0.00 | 63 | 1018.4 |
| 20260504040121 | 8 | 83 | 0.0 | 0.0 | 0.00 | 0.00 | 0.00 | 63 | 1018.4 |
| 20260504035618 | 8 | 166 | 0.0 | 0.0 | 0.00 | 0.00 | 0.00 | 64 | 1018.4 |
| 20260504035114 | 9 | 104 | 0.0 | 0.0 | 0.00 | 0.00 | 0.00 | 64 | 1018.3 |
| 20260504034612 | 9 | 82 | 0.0 | 0.0 | 0.00 | 0.00 | 0.00 | 64 | 1018.5 |
| 20260504034109 | 9 | 82 | 0.0 | 0.0 | 0.00 | 0.00 | 0.00 | 64 | 1018.3 |
| 20260504033607 | 9 | 82 | 0.0 | 0.0 | 0.00 | 0.00 | 0.00 | 64 | 1018.2 |
| 20260504033104 | 10 | 82 | 0.0 | 0.0 | 0.00 | 0.00 | 0.00 | 64 | 1018.3 |
| 20260504032601 | 10 | 82 | 0.0 | 0.0 | 0.00 | 0.00 | 0.00 | 63 | 1018.2 |
| 20260504032058 | 10 | 82 | 0.0 | 0.0 | 0.00 | 0.00 | 0.00 | 64 | 1018.0 |
| 20260504031554 | 10 | 83 | 0.0 | 0.0 | 0.00 | 0.00 | 0.00 | 65 | 1018.0 |
| 20260504031050 | 10 | 83 | 0.0 | 0.0 | 0.00 | 0.00 | 0.00 | 64 | 1017.9 |
| 20260504030548 | 10 | 82 | 0.0 | 0.0 | 0.00 | 0.00 | 0.00 | 64 | 1018.0 |
| 20260504030044 | 10 | 82 | 0.0 | 0.0 | 0.00 | 0.00 | 0.00 | 64 | 1018.1 |
| 20260504025541 | 10 | 82 | 0.0 | 0.0 | 0.00 | 0.00 | 0.00 | 63 | 1018.0 |
| 20260504025038 | 10 | 83 | 0.0 | 0.0 | 0.00 | 0.00 | 0.00 | 62 | 1018.0 |
| 20260504024535 | 10 | 83 | 0.0 | 0.0 | 0.00 | 0.00 | 0.00 | 62 | 1017.9 |
| 20260504024032 | 10 | 83 | 0.0 | 0.0 | 0.00 | 0.00 | 0.00 | 62 | 1018.3 |
| 20260504023529 | 10 | 83 | 0.0 | 0.0 | 0.00 | 0.00 | 0.00 | 59 | 1018.0 |
| 20260504023024 | 10 | 83 | 0.0 | 0.0 | 0.00 | 0.00 | 0.00 | 59 | 1018.0 |
| 20260504022520 | 10 | 83 | 0.0 | 0.0 | 0.00 | 0.00 | 0.00 | 57 | 1018.0 |
| 20260504022017 | 10 | 82 | 0.0 | 1.6 | 0.00 | 0.00 | 0.00 | 57 | 1018.0 |
| 20260504021515 | 10 | 89 | 0.0 | 0.0 | 0.00 | 0.00 | 0.00 | 56 | 1017.9 |
| 20260504021012 | 11 | 89 | 0.0 | 0.0 | 0.00 | 0.00 | 0.00 | 55 | 1017.7 |
| 20260504020508 | 11 | 89 | 0.0 | 0.0 | 0.00 | 0.00 | 0.00 | 54 | 1017.9 |
| 20260504020005 | 11 | 89 | 0.0 | 0.0 | 0.00 | 0.00 | 0.00 | 53 | 1017.9 |
| 20260504015501 | 11 | 89 | 0.0 | 0.0 | 0.00 | 0.00 | 0.00 | 52 | 1017.9 |
| 20260504014957 | 11 | 89 | 0.0 | 0.0 | 0.00 | 0.00 | 0.00 | 50 | 1017.9 |
| 20260504014453 | 11 | 89 | 0.0 | 0.0 | 0.00 | 0.00 | 0.00 | 49 | 1017.8 |
| 20260504013950 | 11 | 89 | 0.0 | 0.0 | 0.00 | 0.00 | 0.00 | 48 | 1017.7 |
| 20260504013449 | 11 | 89 | 0.0 | 0.0 | 0.00 | 0.00 | 0.00 | 49 | 1017.8 |
| 20260504012944 | 11 | 89 | 0.0 | 0.0 | 0.00 | 0.00 | 0.00 | 50 | 1017.5 |
| 20260504012443 | 11 | 89 | 0.0 | 0.0 | 0.00 | 0.00 | 0.00 | 49 | 1017.6 |
| 20260504011940 | 11 | 89 | 0.0 | 0.0 | 0.00 | 0.00 | 0.00 | 48 | 1017.7 |
| 20260504011436 | 11 | 89 | 0.0 | 0.0 | 0.00 | 0.00 | 0.00 | 47 | 1017.6 |
| 20260504010932 | 12 | 89 | 0.0 | 0.0 | 0.00 | 0.00 | 0.00 | 48 | 1017.5 |
| 20260504010428 | 12 | 89 | 0.0 | 0.0 | 0.00 | 0.00 | 0.00 | 46 | 1017.6 |
| 20260504005925 | 12 | 89 | 0.0 | 0.0 | 0.00 | 0.00 | 0.00 | 46 | 1017.7 |
| 20260504005422 | 12 | 89 | 0.0 | 0.0 | 0.00 | 0.00 | 0.00 | 45 | 1017.6 |
| 20260504004919 | 12 | 89 | 0.0 | 0.0 | 0.00 | 0.00 | 0.00 | 46 | 1017.4 |
| 20260504004417 | 12 | 89 | 0.0 | 0.0 | 0.00 | 0.00 | 0.00 | 47 | 1017.4 |
| 20260504003914 | 12 | 89 | 0.0 | 0.0 | 0.00 | 0.00 | 0.00 | 47 | 1017.4 |
| 20260504003410 | 12 | 92 | 0.0 | 0.0 | 0.00 | 0.00 | 0.00 | 45 | 1017.3 |
| 20260504002907 | 13 | 185 | 0.0 | 0.0 | 0.00 | 0.00 | 0.00 | 43 | 1017.3 |
| 20260504002404 | 13 | 185 | 0.0 | 0.0 | 0.00 | 0.00 | 0.00 | 42 | 1017.2 |
| 20260504001901 | 13 | 185 | 0.0 | 0.0 | 0.00 | 0.00 | 0.00 | 39 | 1017.1 |
| 20260504001359 | 13 | 185 | 0.0 | 0.0 | 0.00 | 0.00 | 0.00 | 40 | 1017.1 |
| 20260504000855 | 14 | 186 | 0.0 | 0.0 | 0.00 | 0.00 | 0.00 | 38 | 1017.0 |
| 20260504000354 | 14 | 184 | 0.0 | 0.0 | 0.00 | 0.00 | 0.00 | 38 | 1017.1 |
| 20260503235849 | 15 | 183 | 0.0 | 0.0 | 0.00 | 0.00 | 0.00 | 36 | 1017.1 |
| 20260503235347 | 15 | 183 | 0.0 | 0.0 | 0.00 | 0.00 | 0.00 | 35 | 1016.9 |
| 20260503234844 | 15 | 178 | 0.0 | 0.0 | 0.00 | 0.00 | 0.00 | 35 | 1017.0 |
| 20260503234342 | 15 | 229 | 1.6 | 1.6 | 0.00 | 0.00 | 0.00 | 33 | 1016.8 |
| 20260503233839 | 15 | 179 | 0.0 | 0.0 | 0.00 | 0.00 | 0.00 | 34 | 1016.8 |
| 20260503233335 | 15 | 188 | 0.0 | 1.6 | 0.00 | 0.00 | 0.00 | 32 | 1016.6 |
| 20260503232832 | 15 | 203 | 0.0 | 1.6 | 0.00 | 0.00 | 0.00 | 33 | 1016.6 |
| 20260503232329 | 16 | 94 | 0.0 | 0.0 | 0.00 | 0.00 | 0.00 | 32 | 1016.7 |
| 20260503231827 | 16 | 189 | 0.0 | 1.6 | 0.00 | 0.00 | 0.00 | 33 | 1016.7 |
| 20260503231324 | 16 | 114 | 0.0 | 0.0 | 0.00 | 0.00 | 0.00 | 33 | 1016.7 |
| 20260503230820 | 16 | 92 | 0.0 | 0.0 | 0.00 | 0.00 | 0.00 | 31 | 1016.5 |
| 20260503230317 | 16 | 174 | 0.0 | 0.0 | 0.00 | 0.00 | 0.00 | 33 | 1016.7 |
| 20260503225815 | 16 | 189 | 0.0 | 0.0 | 0.00 | 0.00 | 0.00 | 31 | 1016.6 |
| 20260503225310 | 16 | 239 | 1.6 | 3.2 | 0.00 | 0.00 | 0.00 | 31 | 1016.6 |
| 20260503224807 | 16 | 248 | 1.6 | 3.2 | 0.00 | 0.00 | 0.00 | 31 | 1016.5 |
| 20260503224304 | 16 | 94 | 0.0 | 0.0 | 0.00 | 0.00 | 0.00 | 32 | 1016.6 |
| 20260503223802 | 17 | 245 | 1.6 | 1.6 | 0.00 | 0.00 | 0.00 | 31 | 1016.8 |
| 20260503223259 | 17 | 175 | 1.6 | 1.6 | 0.00 | 0.00 | 0.00 | 32 | 1016.7 |
| 20260503222755 | 16 | 56 | 0.0 | 1.6 | 0.00 | 0.00 | 0.00 | 32 | 1016.6 |
| 20260503222254 | 16 | 58 | 1.6 | 1.6 | 0.00 | 0.00 | 0.00 | 31 | 1016.7 |
| 20260503221751 | 16 | 234 | 3.2 | 3.2 | 0.00 | 0.00 | 0.00 | 31 | 1016.6 |
| 20260503221249 | 17 | 210 | 1.6 | 3.2 | 0.00 | 0.00 | 0.00 | 31 | 1016.6 |
| 20260503220745 | 17 | 75 | 0.0 | 1.6 | 0.00 | 0.00 | 0.00 | 30 | 1016.8 |
| 20260503220243 | 17 | 64 | 0.0 | 0.0 | 0.00 | 0.00 | 0.00 | 30 | 1016.6 |
| 20260503215739 | 17 | 80 | 0.0 | 1.6 | 0.00 | 0.00 | 0.00 | 34 | 1016.7 |
| 20260503215236 | 17 | 72 | 1.6 | 4.8 | 0.00 | 0.00 | 0.00 | 32 | 1016.8 |